DW6352 Weather Reports


time (UTC)temp
C
wind
direction
speed
KPH
gust
KPH
rain 1hr
cm
rain 24hr
cm
rain mn
cm
humidity
%
barometer
mb
20260510124547 6 311 6.4 14.5 0.00 0.00 0.00 65 1018.8
20260510123043 6 319 9.7 16.1 0.00 0.00 0.00 65 1018.6
20260510121542 5 307 4.8 8.0 0.00 0.00 0.00 66 1018.5
20260510120037 5 313 3.2 8.0 0.00 0.00 0.00 66 1018.3
20260510114533 5 242 1.6 6.4 0.00 0.00 0.00 67 1018.1
20260510113036 4 319 1.6 4.8 0.00 0.00 0.00 66 1017.9
20260510111526 4 319 1.6 4.8 0.00 0.00 0.00 66 1017.7
20260510110035 4 319 1.6 4.8 0.00 0.00 0.00 66 1017.6
20260510104522 5 319 1.6 4.8 0.00 0.03 0.00 65 1017.4
20260510103021 5 319 0.0 3.2 0.00 0.03 0.00 65 1017.1
20260510101519 5 319 1.6 4.8 0.00 0.03 0.00 64 1017.0
20260510100017 5 319 1.6 6.4 0.00 0.03 0.00 64 1016.8
20260510094518 5 349 3.2 6.4 0.00 0.20 0.00 64 1016.7
20260510093014 5 350 1.6 4.8 0.00 0.20 0.00 64 1016.3
20260510091514 5 343 1.6 8.0 0.00 0.20 0.00 64 1016.2
20260510090019 5 327 3.2 9.7 0.00 0.20 0.00 65 1016.1
20260510084517 4 315 6.4 14.5 0.00 0.33 0.00 67 1015.9
20260510083009 3 316 4.8 8.0 0.00 0.33 0.00 72 1015.7
20260510081506 2 330 3.2 6.4 0.00 0.33 0.00 76 1015.4
20260510080005 2 319 3.2 6.4 0.00 0.33 0.00 78 1015.2
20260510074503 1 286 1.6 8.0 0.00 0.33 0.00 77 1015.0
20260510073001 1 287 3.2 6.4 0.00 0.33 0.00 74 1015.1
20260510071559 1 287 1.6 4.8 0.00 0.33 0.00 72 1015.0
20260510070058 1 287 3.2 4.8 0.00 0.33 0.00 69 1014.9
20260510064604 2 293 1.6 4.8 0.00 0.33 0.00 67 1015.0
20260510063052 2 293 1.6 4.8 0.00 0.33 0.00 66 1014.8
20260510061550 2 293 0.0 4.8 0.00 0.33 0.00 65 1014.8
20260510060046 3 261 3.2 6.4 0.00 0.33 0.00 64 1014.7
20260510054543 3 322 1.6 4.8 0.00 0.33 0.00 63 1014.6
20260510053040 3 322 1.6 4.8 0.00 0.33 0.00 63 1014.6
20260510051536 4 322 0.0 4.8 0.00 0.33 0.00 61 1014.5
20260510050032 5 322 1.6 4.8 0.00 0.33 0.00 58 1014.4
20260510044535 5 322 1.6 4.8 0.00 0.33 0.33 56 1014.4
20260510043024 6 322 1.6 3.2 0.00 0.33 0.33 51 1014.3
20260510041522 7 322 0.0 3.2 0.00 0.33 0.33 47 1014.2
20260510040020 8 322 1.6 4.8 0.00 0.33 0.33 44 1014.1
20260510034519 8 315 4.8 8.0 0.00 0.33 0.33 43 1014.0
20260510033018 9 313 4.8 12.9 0.00 0.33 0.33 42 1013.9
20260510031522 9 314 9.7 20.9 0.00 0.33 0.33 42 1013.9
20260510030020 10 355 9.7 20.9 0.00 0.33 0.33 41 1013.7
20260510024516 10 302 11.3 19.3 0.00 0.33 0.33 41 1013.4
20260510023010 10 317 9.7 19.3 0.00 0.33 0.33 41 1013.1
20260510021513 10 335 9.7 24.1 0.00 0.33 0.33 39 1012.7
20260510020006 11 323 11.3 25.7 0.00 0.33 0.33 38 1012.3
20260510014503 11 318 12.9 22.5 0.00 0.33 0.33 37 1012.0
20260510013002 11 342 9.7 19.3 0.00 0.33 0.33 37 1011.7
20260510011600 11 347 11.3 24.1 0.00 0.33 0.33 36 1011.5
20260510010136 12 311 9.7 19.3 0.00 0.33 0.33 35 1011.3
20260510004557 12 342 12.9 22.5 0.00 0.33 0.33 34 1011.0
20260510003054 12 298 9.7 22.5 0.00 0.33 0.33 34 1010.7
20260510001552 12 325 11.3 25.7 0.00 0.33 0.33 33 1010.6
20260510000051 12 316 11.3 25.7 0.00 0.33 0.33 32 1010.4
20260509234604 12 342 14.5 25.7 0.00 0.33 0.33 31 1010.3
20260509233046 12 326 12.9 24.1 0.00 0.33 0.33 31 1010.0
20260509231545 13 324 8.0 24.1 0.00 0.33 0.33 32 1009.9
20260509230045 13 319 12.9 25.7 0.00 0.33 0.33 30 1009.7
20260509224543 13 306 17.7 27.4 0.00 0.33 0.33 31 1009.6
20260509223042 13 343 17.7 33.8 0.00 0.33 0.33 30 1009.4
20260509221540 13 9 14.5 27.4 0.00 0.33 0.33 30 1009.2
20260509220040 13 31 17.7 32.2 0.00 0.33 0.33 31 1009.2
20260509214542 13 320 17.7 32.2 0.00 0.33 0.33 30 1009.1
20260509213037 14 312 20.9 38.6 0.00 0.33 0.33 31 1009.0
20260509211542 13 319 16.1 37.0 0.00 0.33 0.33 32 1008.8
20260509210034 13 350 22.5 37.0 0.00 0.33 0.33 31 1008.7
20260509204533 13 333 25.7 41.8 0.00 0.33 0.33 31 1008.6
20260509203034 13 341 17.7 35.4 0.00 0.33 0.33 33 1008.7
20260509201531 13 34 17.7 32.2 0.00 0.33 0.33 33 1008.6
20260509200029 13 331 22.5 43.5 0.00 0.33 0.33 33 1008.7
20260509194529 13 336 22.5 43.5 0.00 0.33 0.33 33 1008.6
20260509193030 13 293 12.9 37.0 0.00 0.33 0.33 34 1008.4
20260509191527 13 311 17.7 37.0 0.00 0.33 0.33 36 1008.3
20260509190024 12 349 22.5 35.4 0.00 0.33 0.33 36 1008.1
20260509184530 12 311 16.1 37.0 0.00 0.33 0.33 36 1008.1
20260509183020 12 322 22.5 37.0 0.00 0.33 0.33 37 1007.9
20260509181518 12 327 11.3 35.4 0.00 0.33 0.33 38 1007.8
20260509180018 12 312 20.9 38.6 0.00 0.33 0.33 35 1007.8
20260509174514 12 360 17.7 33.8 0.00 0.33 0.33 36 1007.7
20260509173010 12 284 20.9 33.8 0.00 0.33 0.33 36 1007.6
20260509171509 12 22 19.3 33.8 0.00 0.33 0.33 37 1007.4
20260509170007 12 321 14.5 32.2 0.00 0.33 0.33 39 1007.3
20260509164504 11 330 22.5 37.0 0.00 0.33 0.33 42 1007.1
20260509163007 11 13 17.7 32.2 0.00 0.33 0.33 43 1007.0
20260509161502 11 296 17.7 33.8 0.00 0.33 0.33 43 1006.9
20260509160058 11 25 17.7 38.6 0.00 0.33 0.33 43 1006.7
20260509154557 11 344 19.3 35.4 0.00 0.33 0.33 44 1006.5
20260509153053 11 288 14.5 32.2 0.00 0.33 0.33 52 1006.2
20260509151552 10 312 19.3 33.8 0.00 0.33 0.33 51 1006.1
20260509150049 10 300 22.5 37.0 0.00 0.33 0.33 54 1005.9
20260509144547 10 277 19.3 32.2 0.00 0.33 0.33 57 1005.6
20260509143042 10 311 16.1 25.7 0.00 0.33 0.33 61 1005.2
20260509141538 10 325 11.3 27.4 0.00 0.33 0.33 66 1005.0
20260509140037 9 5 16.1 29.0 0.00 0.33 0.33 70 1004.9
20260509134534 9 346 16.1 25.7 0.00 0.33 0.33 74 1004.8
20260509133031 8 319 19.3 27.4 0.00 0.33 0.33 80 1004.6
20260509131529 8 344 11.3 24.1 0.00 0.33 0.33 86 1004.4
20260509130047 7 331 9.7 17.7 0.00 0.33 0.33 89 1004.3